Regional Weather Roundup
Issued by NWS

Home | Current Version | Previous Version | Text Only | Print | Product List | Glossary On
Versions: 1 2 3 4 5 6 7 8 9 10 11 12 13 14 15 16 17 18 19 20 21 22 23 24 25 26 27 28 29 30 31 32 33 34 35 36 37 38 39 40 41 42 43 44 45 46 47 48 49 50
000
ASUS43 KLOT 020900
RWRIL

ILLINOIS REGIONAL WEATHER ROUNDUP
NATIONAL WEATHER SERVICE CHICAGO/ROMEOVILLE IL
400 AM CDT SAT AUG 02 2014

NOTE: "FAIR" INDICATES FEW OR NO CLOUDS BELOW 12,000 FEET WITH NO
SIGNIFICANT WEATHER AND/OR OBSTRUCTIONS TO VISIBILITY.

* THESE STATIONS ARE NOT UNDER NWS QUALITY CONTROL. THEY ALSO MAY NOT
  REPORT WEATHER SUCH AS PRECIPITATION OR FOG.

ILZ001-002-007-009-015-016-024-021000-
NORTHWEST ILLINOIS

CITY           SKY/WX    TMP DP  RH WIND       PRES   REMARKS
MOLINE         CLEAR     61  58  90 CALM      30.11R
STERLING*      CLEAR     59  55  88 CALM      30.13R
$$

ILZ003-004-008-010-011-017-018-021000-
NORTH CENTRAL ILLINOIS

CITY           SKY/WX    TMP DP  RH WIND       PRES   REMARKS
ROCKFORD       PTCLDY    58  55  90 S7        30.15R
$$

ILZ005-006-012>014-019>023-021000-
NORTHEAST ILLINOIS

CITY           SKY/WX    TMP DP  RH WIND       PRES   REMARKS
CHICAGO-OHARE  PTCLDY    63  54  72 NW8       30.11R
CHICAGO-MIDWAY PTCLDY    64  58  80 W5        30.10R
AURORA         CLEAR     56  52  86 CALM      30.12R
WAUKEGAN       CLEAR     56  54  93 W3        30.11R
DUPAGE AIRPORT CLEAR     59  55  87 W5        30.11R
WHEELING       CLEAR     61  56  83 CALM      30.13R
NORTHERLY ISL    N/A     67  59  75 W2          N/A
$$

LMZ740>746-021000-
SOUTHERN LAKE MICHIGAN

STATION/POSITION SKY/WX   TEMP    WIND        PRES    VSBY  WAVE
                          AIR SEA DIR/SP/G                  HT/PER
                          (F)     (DEG/KT/KT) (MB)    (MI)  (FT/S)
SOUTHERN BUOY              64 64   30/  4/  4 1018.6F         1
WAUKEGAN HARBOR            63     330/  4/  7   N/A
HARRISON CRIB              67     220/  4/  5   N/A
BURNHAM HARBOR             67     270/  4       N/A
CALUMET HARBOR             63     280/  5/  5 1017.9R
MICHIGAN CITY              64     150/  4/  5   N/A
MICHIGAN CITY 6N           66 69  190/  4/  6   N/A           0
ST. JOSEPH                 66 69  140/  4/  6   N/A           0
$$

ILZ025>027-034>036-040-047-049-050-058-095>099-021000-
WEST-CENTRAL ILLINOIS

CITY           SKY/WX    TMP DP  RH WIND       PRES   REMARKS
QUINCY         FOG       60  58  92 SW6       30.10R VSB 3/4
GALESBURG*     CLEAR     56  55  96 CALM      30.12S
$$

ILZ028>032-037-038-041>044-048-051>054-059>061-021000-
CENTRAL ILLINOIS

CITY           SKY/WX    TMP DP  RH WIND       PRES   REMARKS
DECATUR        CLEAR     59  57  93 CALM      30.10S
PEORIA         CLEAR     63  59  87 CALM      30.12R FOG
SPRINGFIELD    CLEAR     59  57  93 CALM      30.12R
TAYLORVILLE    NOT AVBL
$$

ILZ033-039-045-046-055>057-062-063-021000-
EAST-CENTRAL ILLINOIS

CITY           SKY/WX    TMP DP  RH WIND       PRES   REMARKS
CHAMPAIGN      CLEAR     59  57  93 W5        30.10R
MATTOON        CLEAR     58  58 100 NW6       30.09R FOG
$$

ILZ079-100>102-021000-
SOUTHWEST ILLINOIS

CITY           SKY/WX    TMP DP  RH WIND       PRES   REMARKS
BELLEVILLE     CLEAR     61  61  99 SW2       30.08S
CAHOKIA*       CLEAR     60  58  92 CALM      30.09R FOG
SPARTA*        PTCLDY    61  61 100 N6        30.09S
$$

ILZ064>066-069>071-074>076-080>082-084>086-088>090-092>094-021000-
SOUTH-CENTRAL ILLINOIS

CITY           SKY/WX    TMP DP  RH WIND       PRES   REMARKS
CARBONDALE     MOCLDY    65  63  93 CALM      30.07F
MT. VERNON     CLEAR     61  55  82 CALM      30.09R
SALEM*         CLEAR     62  60  95 N3        30.09S FOG
$$

ILZ067-068-072-073-078-083-087-091-021000-
SOUTHEAST ILLINOIS

CITY           SKY/WX    TMP DP  RH WIND       PRES   REMARKS
LAWRENCEVILLE  TSTM      67  65  93 NE5       30.09R
HARRISBURG*    MOCLDY    64  64 100 CALM      30.07F FOG
CARMI*         PTCLDY    64  64 100 CALM      30.07R
$$

ABBREVIATIONS USED IN REMARKS
   TC - TEMPERATURE IN CELSIUS
  WCI - WIND CHILL INDEX
   HX - HEAT INDEX
  VSB - VISIBILITY
$$




USA.gov is the U.S. government's official web portal to all federal, state and local government web resources and services.